| time (UTC) | temp F | wind direction | speed MPH | gust MPH | rain 1hr in | rain 24hr in | rain mn in | humidity % | barometer mb |
| 20260507040105 | 44 | 313 | 4.0 | 0.0 | 0.00 | 0.00 | 0.00 | 79 | 1008.6 |
| 20260507034601 | 45 | 244 | 4.0 | 0.0 | 0.00 | 0.00 | 0.15 | 81 | 1008.6 |
| 20260507033058 | 45 | 259 | 2.0 | 0.0 | 0.00 | 0.00 | 0.15 | 86 | 1008.7 |
| 20260507031557 | 45 | 263 | 3.0 | 0.0 | 0.00 | 0.00 | 0.15 | 86 | 1008.6 |
| 20260507030057 | 45 | 259 | 3.0 | 0.0 | 0.00 | 0.00 | 0.15 | 86 | 1008.7 |
| 20260507024601 | 46 | 284 | 2.0 | 0.0 | 0.00 | 0.00 | 0.15 | 86 | 1008.7 |
| 20260507023056 | 46 | 307 | 3.0 | 0.0 | 0.00 | 0.00 | 0.15 | 86 | 1008.7 |
| 20260507021559 | 46 | 271 | 3.0 | 0.0 | 0.00 | 0.00 | 0.15 | 85 | 1008.9 |
| 20260507020057 | 46 | 271 | 3.0 | 0.0 | 0.00 | 0.00 | 0.15 | 85 | 1008.9 |
| 20260507014558 | 46 | 278 | 3.0 | 0.0 | 0.00 | 0.00 | 0.15 | 84 | 1008.8 |
| 20260507013054 | 46 | 201 | 2.0 | 0.0 | 0.00 | 0.00 | 0.15 | 83 | 1009.0 |
| 20260507011553 | 46 | 259 | 3.0 | 0.0 | 0.00 | 0.00 | 0.15 | 83 | 1009.0 |
| 20260507010109 | 47 | 213 | 4.0 | 0.0 | 0.00 | 0.00 | 0.15 | 81 | 1008.9 |
| 20260507004552 | 47 | 269 | 3.0 | 0.0 | 0.00 | 0.00 | 0.15 | 79 | 1008.7 |
| 20260507003051 | 47 | 209 | 4.0 | 0.0 | 0.00 | 0.00 | 0.15 | 78 | 1008.7 |
| 20260507001557 | 48 | 211 | 3.0 | 0.0 | 0.00 | 0.00 | 0.15 | 78 | 1008.6 |
| 20260507000056 | 48 | 270 | 3.0 | 0.0 | 0.00 | 0.00 | 0.15 | 77 | 1008.4 |
| 20260506234550 | 48 | 215 | 3.0 | 0.0 | 0.00 | 0.00 | 0.15 | 76 | 1008.5 |
| 20260506233058 | 49 | 208 | 3.0 | 0.0 | 0.00 | 0.00 | 0.15 | 75 | 1008.3 |
| 20260506231548 | 49 | 277 | 2.0 | 0.0 | 0.00 | 0.00 | 0.15 | 73 | 1008.2 |
| 20260506230051 | 49 | 212 | 3.0 | 0.0 | 0.00 | 0.00 | 0.15 | 71 | 1008.1 |
| 20260506224552 | 49 | 228 | 2.0 | 0.0 | 0.00 | 0.00 | 0.15 | 71 | 1008.1 |
| 20260506223047 | 49 | 224 | 3.0 | 0.0 | 0.00 | 0.00 | 0.15 | 70 | 1008.0 |
| 20260506221549 | 50 | 166 | 2.0 | 0.0 | 0.00 | 0.00 | 0.15 | 70 | 1007.9 |
| 20260506220051 | 50 | 226 | 4.0 | 0.0 | 0.00 | 0.00 | 0.15 | 68 | 1008.0 |
| 20260506214550 | 50 | 193 | 3.0 | 0.0 | 0.00 | 0.00 | 0.15 | 66 | 1007.9 |
| 20260506213045 | 51 | 164 | 3.0 | 0.0 | 0.00 | 0.00 | 0.15 | 65 | 1007.9 |
| 20260506211551 | 51 | 180 | 2.0 | 0.0 | 0.00 | 0.00 | 0.15 | 67 | 1007.7 |
| 20260506210045 | 51 | 147 | 2.0 | 0.0 | 0.00 | 0.00 | 0.15 | 66 | 1007.6 |
| 20260506204545 | 51 | 115 | 3.0 | 0.0 | 0.00 | 0.00 | 0.15 | 64 | 1007.8 |
| 20260506203044 | 52 | 177 | 3.0 | 0.0 | 0.00 | 0.00 | 0.15 | 64 | 1007.9 |
| 20260506201543 | 52 | 260 | 2.0 | 0.0 | 0.00 | 0.00 | 0.15 | 64 | 1007.7 |
| 20260506200043 | 52 | 296 | 3.0 | 0.0 | 0.00 | 0.00 | 0.15 | 64 | 1007.8 |
| 20260506194540 | 52 | 192 | 1.0 | 0.0 | 0.00 | 0.00 | 0.15 | 75 | 1008.0 |
| 20260506193035 | 50 | 294 | 2.0 | 0.0 | 0.00 | 0.00 | 0.15 | 72 | 1007.9 |
| 20260506191534 | 49 | 197 | 2.0 | 0.0 | 0.00 | 0.00 | 0.15 | 75 | 1007.9 |
| 20260506190030 | 49 | 263 | 2.0 | 0.0 | 0.00 | 0.00 | 0.15 | 75 | 1008.1 |
| 20260506184527 | 48 | 202 | 0.0 | 0.0 | 0.00 | 0.00 | 0.15 | 76 | 1008.2 |
| 20260506183024 | 47 | 217 | 0.0 | 0.0 | 0.00 | 0.00 | 0.15 | 80 | 1008.2 |
| 20260506181520 | 46 | 205 | 0.0 | 0.0 | 0.00 | 0.00 | 0.15 | 80 | 1008.3 |
| 20260506180018 | 46 | 205 | 1.0 | 0.0 | 0.00 | 0.00 | 0.15 | 83 | 1008.4 |
| 20260506174519 | 45 | 81 | 1.0 | 0.0 | 0.00 | 0.00 | 0.15 | 83 | 1008.5 |
| 20260506173019 | 45 | 82 | 0.0 | 0.0 | 0.00 | 0.00 | 0.15 | 83 | 1008.4 |
| 20260506171520 | 44 | 82 | 0.0 | 0.0 | 0.00 | 0.00 | 0.15 | 85 | 1008.3 |
| 20260506170017 | 44 | 82 | 2.0 | 0.0 | 0.00 | 0.00 | 0.15 | 85 | 1008.1 |
| 20260506164517 | 44 | 86 | 1.0 | 0.0 | 0.00 | 0.00 | 0.15 | 86 | 1008.0 |
| 20260506163019 | 44 | 92 | 2.0 | 0.0 | 0.00 | 0.00 | 0.15 | 86 | 1008.2 |
| 20260506161516 | 44 | 107 | 1.0 | 0.0 | 0.00 | 0.00 | 0.15 | 87 | 1008.2 |
| 20260506160016 | 44 | 78 | 2.0 | 0.0 | 0.00 | 0.00 | 0.15 | 88 | 1008.5 |
| 20260506154515 | 43 | 98 | 2.0 | 0.0 | 0.00 | 0.00 | 0.15 | 88 | 1008.5 |
| 20260506153014 | 43 | 118 | 3.0 | 0.0 | 0.00 | 0.00 | 0.15 | 88 | 1008.9 |
| 20260506151512 | 43 | 98 | 0.0 | 0.0 | 0.00 | 0.00 | 0.15 | 90 | 1008.6 |
| 20260506150011 | 42 | 98 | 1.0 | 0.0 | 0.00 | 0.00 | 0.15 | 90 | 1008.8 |
| 20260506144524 | 42 | 98 | 0.0 | 0.0 | 0.00 | 0.00 | 0.15 | 90 | 1008.7 |
| 20260506143009 | 42 | 98 | 0.0 | 0.0 | 0.00 | 0.00 | 0.15 | 91 | 1008.6 |
| 20260506141507 | 42 | 97 | 2.0 | 0.0 | 0.00 | 0.00 | 0.15 | 91 | 1008.5 |
| 20260506140007 | 42 | 88 | 2.0 | 0.0 | 0.00 | 0.00 | 0.15 | 92 | 1008.3 |
| 20260506134506 | 42 | 123 | 0.0 | 0.0 | 0.00 | 0.00 | 0.14 | 93 | 1008.5 |
| 20260506133004 | 42 | 138 | 0.0 | 0.0 | 0.00 | 0.00 | 0.14 | 93 | 1008.3 |
| 20260506131558 | 42 | 139 | 1.0 | 0.0 | 0.00 | 0.00 | 0.14 | 93 | 1008.3 |
| 20260506130138 | 42 | 141 | 1.0 | 0.0 | 0.00 | 0.00 | 0.14 | 93 | 1008.3 |
| 20260506124556 | 42 | 142 | 2.0 | 0.0 | 0.00 | 0.00 | 0.14 | 93 | 1008.3 |
| 20260506123054 | 42 | 126 | 1.0 | 0.0 | 0.00 | 0.00 | 0.14 | 93 | 1008.3 |
| 20260506121555 | 41 | 127 | 0.0 | 0.0 | 0.00 | 0.00 | 0.13 | 93 | 1008.5 |
| 20260506120055 | 41 | 126 | 0.0 | 0.0 | 0.00 | 0.00 | 0.13 | 93 | 1008.4 |
| 20260506114552 | 41 | 126 | 0.0 | 0.0 | 0.00 | 0.00 | 0.13 | 93 | 1008.2 |
| 20260506113052 | 41 | 127 | 1.0 | 0.0 | 0.00 | 0.00 | 0.13 | 93 | 1008.0 |
| 20260506111546 | 41 | 125 | 2.0 | 0.0 | 0.00 | 0.00 | 0.13 | 92 | 1008.2 |
| 20260506110045 | 41 | 142 | 2.0 | 0.0 | 0.00 | 0.00 | 0.13 | 92 | 1008.0 |
| 20260506104552 | 41 | 134 | 2.0 | 0.0 | 0.00 | 0.00 | 0.13 | 92 | 1007.9 |
| 20260506103041 | 42 | 141 | 1.0 | 0.0 | 0.00 | 0.00 | 0.13 | 92 | 1008.0 |
| 20260506101538 | 42 | 233 | 0.0 | 0.0 | 0.00 | 0.00 | 0.13 | 91 | 1008.1 |
| 20260506100041 | 42 | 233 | 0.0 | 0.0 | 0.00 | 0.00 | 0.12 | 91 | 1008.4 |
| 20260506094536 | 42 | 234 | 0.0 | 0.0 | 0.00 | 0.00 | 0.11 | 91 | 1008.3 |
| 20260506093037 | 42 | 234 | 1.0 | 0.0 | 0.00 | 0.00 | 0.09 | 91 | 1008.2 |
| 20260506091607 | 42 | 139 | 1.0 | 0.0 | 0.00 | 0.00 | 0.09 | 91 | 1007.8 |
| 20260506090038 | 43 | 171 | 1.0 | 0.0 | 0.00 | 0.00 | 0.08 | 90 | 1007.9 |
| 20260506084537 | 43 | 207 | 0.0 | 0.0 | 0.00 | 0.00 | 0.06 | 90 | 1008.1 |
| 20260506083032 | 43 | 207 | 0.0 | 0.0 | 0.00 | 0.00 | 0.05 | 89 | 1008.4 |
| 20260506081527 | 43 | 207 | 1.0 | 0.0 | 0.00 | 0.00 | 0.03 | 89 | 1008.5 |
| 20260506073023 | 44 | 265 | 3.0 | 0.0 | 0.00 | 0.00 | 0.00 | 88 | 1008.3 |
| 20260506071522 | 44 | 281 | 2.0 | 0.0 | 0.00 | 0.00 | 0.00 | 87 | 1008.1 |
| 20260506061516 | 44 | 206 | 1.0 | 0.0 | 0.00 | 0.00 | 0.00 | 86 | 1007.8 |
| 20260506044501 | 47 | 210 | 2.0 | 0.0 | 0.00 | 0.00 | 0.00 | 80 | 1008.4 |
| 20260506043110 | 47 | 190 | 2.0 | 0.0 | 0.00 | 0.00 | 0.00 | 78 | 1008.3 |
| 20260506041559 | 47 | 211 | 1.0 | 0.0 | 0.00 | 0.00 | 0.00 | 74 | 1008.0 |